Location: Mainz-Finthen
(49.9906°N, 8.1713°E)
Time: 09:25:46
(UTC+00:00)

BEESAT - Pass Details

Date: 06 December 2021
Orbit: 699 x 708 km, 98.6° (Epoch: 21 January)

Event Time Altitude Azimuth Distance (km) Brightness Sun altitude
Rises 04:39:23 0° 116° (ESE) 3,093 ? -23.2°
Reaches altitude 10° 04:42:15 10° 98° (E) 2,180 ? -22.7°
Maximum altitude 04:45:25 18° 57° (ENE) 1,708 ? -22.2°
Drops below altitude 10° 04:48:35 10° 15° (NNE) 2,193 ? -21.7°
Sets 04:51:29 0° 357° (N) 3,118 ? -21.3°
